Location: Caseificio
(44.7500°N, 11.0500°E)
Time: 22:34:41
(UTC+00:00)

Cosmos 2297 - Pass Details

Date: 26 May 2022
Orbit: 834 x 859 km, 71.0° (Epoch: 29 June)

Event Time Altitude Azimuth Distance (km) Brightness Sun altitude
Rises 01:26:26 0° 333° (NNW) 3,445 7.3 -17.4°
Reaches altitude 10° 01:28:54 10° 333° (NNW) 2,505 6.5 -17.2°
Maximum altitude 01:34:40 82° 247° (WSW) 873 3.7 -16.6°
Drops below altitude 10° 01:40:24 10° 160° (SSE) 2,483 5.8 -16.0°
Enters shadow 01:41:42 - 160° (SSE) 2,980 6.2 -15.9°
